• In Belarus
  • List of Countries
  • For 7 days
  • Water Temperature
  • Weather Map
  • Weather Widgets
  • user-avatar
    Login

    Hourly Weather Klagenfurt

    Today, 15 September, Sunday

    Time Temperature Precipitation Wind Pressure Humidity
    00:00 +13°C° 0 mm 0 mps 698 mmHg 94%
    01:00 +14°C° 0 mm 1 mps 698 mmHg 95%
    02:00 +14°C° 0 mm 1 mps 698 mmHg 95%
    03:00 +12°C° 0 mm 0 mps 698 mmHg 95%
    04:00 +12°C° 0 mm 0 mps 697 mmHg 96%
    05:00 +13°C° 0 mm 0 mps 697 mmHg 95%
    06:00 +13°C° 0 mm 0 mps 697 mmHg 93%
    07:00 +14°C° 0 mm 0 mps 698 mmHg 93%
    08:00 +16°C° 0 mm 0 mps 698 mmHg 85%
    09:00 +18°C° 0 mm 0 mps 698 mmHg 77%
    10:00 +19°C° 0 mm 0 mps 698 mmHg 69%
    11:00 +23°C° 0 mm 1 mps 698 mmHg 66%
    12:00 +24°C° 0 mm 1 mps 698 mmHg 62%
    13:00 +25°C° 0 mm 1 mps 698 mmHg 57%
    14:00 +24°C° 0 mm 1 mps 697 mmHg 59%
    15:00 +24°C° 0 mm 1 mps 697 mmHg 61%
    16:00 +23°C° 0 mm 1 mps 696 mmHg 64%
    17:00 +21°C° 0 mm 1 mps 696 mmHg 73%
    18:00 +19°C° 0 mm 1 mps 695 mmHg 82%
    19:00 +16°C° 0 mm 1 mps 695 mmHg 90%
    20:00 +16°C° 0 mm 1 mps 695 mmHg 91%
    21:00 +15°C° 0 mm 1 mps 695 mmHg 92%
    22:00 +15°C° 0 mm 1 mps 695 mmHg 92%
    23:00 +15°C° 0 mm 1 mps 694 mmHg 93%

    Tomorrow, 16 September, Monday

    Time Temperature Precipitation Wind Pressure Humidity
    00:00 +15°C° 0 mm 1 mps 694 mmHg 93%
    01:00 +14°C° 0 mm 1 mps 694 mmHg 93%
    02:00 +13°C° 0 mm 0 mps 694 mmHg 93%
    03:00 +13°C° 0 mm 0 mps 694 mmHg 94%
    04:00 +13°C° 0 mm 0 mps 693 mmHg 94%
    05:00 +13°C° 0 mm 0 mps 693 mmHg 92%
    06:00 +14°C° 0 mm 0 mps 693 mmHg 91%
    07:00 +15°C° 0 mm 0 mps 693 mmHg 89%
    08:00 +17°C° 0 mm 0 mps 694 mmHg 81%
    09:00 +19°C° 0 mm 0 mps 694 mmHg 72%
    10:00 +24°C° 0 mm 1 mps 694 mmHg 64%
    11:00 +25°C° 0 mm 1 mps 694 mmHg 61%
    12:00 +26°C° 0 mm 1 mps 694 mmHg 57%
    13:00 +26°C° 0 mm 1 mps 694 mmHg 54%
    14:00 +26°C° 0 mm 1 mps 693 mmHg 57%
    15:00 +25°C° 0 mm 1 mps 693 mmHg 60%
    16:00 +25°C° 0 mm 1 mps 692 mmHg 63%
    17:00 +23°C° 0.3 mm 1 mps 692 mmHg 73%
    18:00 +20°C° 0.3 mm 1 mps 692 mmHg 82%
    19:00 +18°C° 0.3 mm 1 mps 691 mmHg 92%
    20:00 +18°C° 0.2 mm 1 mps 691 mmHg 92%
    21:00 +16°C° 0.2 mm 1 mps 691 mmHg 93%
    22:00 +16°C° 0.2 mm 1 mps 691 mmHg 94%
    23:00 +16°C° 0.1 mm 1 mps 691 mmHg 94%

    Day after tomorrow, 17 September, Tuesday

    Time Temperature Precipitation Wind Pressure Humidity
    00:00 +15°C° 0.1 mm 1 mps 691 mmHg 94%
    01:00 +15°C° 0.1 mm 1 mps 691 mmHg 94%
    02:00 +15°C° 0 mm 1 mps 691 mmHg 94%
    03:00 +14°C° 0 mm 1 mps 690 mmHg 94%
    04:00 +13°C° 0 mm 0 mps 690 mmHg 94%
    05:00 +14°C° 0 mm 0 mps 690 mmHg 93%
    06:00 +14°C° 0 mm 0 mps 690 mmHg 92%
    07:00 +15°C° 0 mm 0 mps 691 mmHg 91%
    08:00 +17°C° 0.1 mm 0 mps 691 mmHg 85%
    09:00 +19°C° 0.1 mm 0 mps 691 mmHg 78%
    10:00 +23°C° 0.1 mm 1 mps 692 mmHg 72%
    11:00 +23°C° 0.4 mm 1 mps 692 mmHg 72%
    12:00 +23°C° 0.4 mm 1 mps 691 mmHg 72%
    13:00 +24°C° 0.4 mm 1 mps 691 mmHg 72%
    14:00 +23°C° 0.6 mm 1 mps 691 mmHg 75%
    15:00 +23°C° 0.6 mm 1 mps 690 mmHg 78%
    16:00 +22°C° 0.6 mm 1 mps 690 mmHg 81%
    17:00 +21°C° 0.8 mm 1 mps 690 mmHg 86%
    18:00 +19°C° 0.8 mm 1 mps 690 mmHg 90%
    19:00 +18°C° 0.8 mm 1 mps 690 mmHg 94%
    20:00 +16°C° 0.6 mm 1 mps 690 mmHg 94%
    21:00 +16°C° 0.6 mm 1 mps 690 mmHg 94%
    22:00 +15°C° 0.6 mm 1 mps 690 mmHg 95%
    23:00 +15°C° 0.2 mm 1 mps 690 mmHg 95%

    18 September, Wednesday

    Time Temperature Precipitation Wind Pressure Humidity
    00:00 +14°C° 0.2 mm 0 mps 690 mmHg 96%
    01:00 +14°C° 0.2 mm 0 mps 691 mmHg 97%
    02:00 +14°C° 0.4 mm 1 mps 691 mmHg 97%
    03:00 +14°C° 0.4 mm 1 mps 691 mmHg 97%
    04:00 +14°C° 0.4 mm 1 mps 691 mmHg 97%
    05:00 +14°C° 0.7 mm 1 mps 691 mmHg 97%
    06:00 +14°C° 0.7 mm 1 mps 691 mmHg 96%
    07:00 +13°C° 0.7 mm 1 mps 691 mmHg 96%
    08:00 +13°C° 0.3 mm 1 mps 691 mmHg 96%
    09:00 +12°C° 0.3 mm 1 mps 692 mmHg 96%
    10:00 +12°C° 0.3 mm 1 mps 692 mmHg 95%
    11:00 +11°C° 0.1 mm 1 mps 692 mmHg 95%
    12:00 +11°C° 0.1 mm 1 mps 692 mmHg 95%
    13:00 +11°C° 0.1 mm 1 mps 692 mmHg 94%
    14:00 +11°C° 0 mm 1 mps 692 mmHg 93%
    15:00 +11°C° 0 mm 1 mps 691 mmHg 93%
    16:00 +11°C° 0 mm 1 mps 691 mmHg 92%
    17:00 +11°C° 0 mm 1 mps 691 mmHg 93%
    18:00 +10°C° 0 mm 1 mps 692 mmHg 94%
    19:00 +10°C° 0 mm 1 mps 692 mmHg 95%
    20:00 +10°C° 0 mm 1 mps 692 mmHg 95%
    21:00 +10°C° 0 mm 1 mps 693 mmHg 95%
    22:00 +9°C° 0 mm 1 mps 693 mmHg 96%
    23:00 +9°C° 0 mm 1 mps 693 mmHg 94%

    19 September, Thursday

    Time Temperature Precipitation Wind Pressure Humidity
    00:00 +9°C° 0 mm 1 mps 693 mmHg 93%
    01:00 +9°C° 0 mm 1 mps 693 mmHg 92%
    02:00 +9°C° 0 mm 1 mps 693 mmHg 91%
    03:00 +9°C° 0 mm 1 mps 693 mmHg 90%
    04:00 +9°C° 0 mm 1 mps 693 mmHg 88%
    05:00 +9°C° 0 mm 1 mps 693 mmHg 87%
    06:00 +9°C° 0 mm 1 mps 693 mmHg 86%
    07:00 +9°C° 0 mm 1 mps 693 mmHg 85%
    08:00 +10°C° 0 mm 1 mps 694 mmHg 79%
    09:00 +10°C° 0 mm 2 mps 694 mmHg 73%
    10:00 +12°C° 0 mm 2 mps 694 mmHg 68%
    11:00 +13°C° 0 mm 2 mps 694 mmHg 65%
    12:00 +14°C° 0 mm 2 mps 694 mmHg 62%
    13:00 +14°C° 0 mm 2 mps 694 mmHg 59%
    14:00 +14°C° 0 mm 2 mps 694 mmHg 59%
    15:00 +14°C° 0 mm 2 mps 694 mmHg 60%
    16:00 +14°C° 0 mm 2 mps 694 mmHg 61%
    17:00 +12°C° 0 mm 2 mps 694 mmHg 69%
    18:00 +10°C° 0 mm 1 mps 694 mmHg 78%
    19:00 +8°C° 0 mm 1 mps 694 mmHg 87%
    20:00 +8°C° 0 mm 1 mps 695 mmHg 87%
    21:00 +7°C° 0 mm 1 mps 695 mmHg 87%
    22:00 +7°C° 0 mm 1 mps 696 mmHg 86%
    23:00 +7°C° 0 mm 1 mps 696 mmHg 86%

    20 September, Friday

    Time Temperature Precipitation Wind Pressure Humidity
    00:00 +6°C° 0 mm 1 mps 696 mmHg 86%
    01:00 +6°C° 0 mm 1 mps 696 mmHg 86%
    02:00 +5°C° 0 mm 1 mps 696 mmHg 88%
    03:00 +5°C° 0 mm 1 mps 696 mmHg 90%
    04:00 +4°C° 0 mm 1 mps 696 mmHg 92%
    05:00 +5°C° 0 mm 1 mps 696 mmHg 89%
    06:00 +5°C° 0 mm 1 mps 696 mmHg 87%
    07:00 +5°C° 0 mm 1 mps 696 mmHg 84%
    08:00 +7°C° 0 mm 1 mps 697 mmHg 73%
    09:00 +10°C° 0 mm 1 mps 697 mmHg 62%
    10:00 +12°C° 0 mm 2 mps 698 mmHg 51%
    11:00 +13°C° 0 mm 2 mps 697 mmHg 48%
    12:00 +14°C° 0 mm 2 mps 697 mmHg 44%
    13:00 +14°C° 0 mm 2 mps 697 mmHg 41%
    14:00 +14°C° 0 mm 2 mps 697 mmHg 43%
    15:00 +14°C° 0 mm 2 mps 697 mmHg 45%
    16:00 +13°C° 0 mm 2 mps 696 mmHg 47%
    17:00 +11°C° 0 mm 1 mps 696 mmHg 56%
    18:00 +9°C° 0 mm 1 mps 696 mmHg 64%
    19:00 +7°C° 0 mm 1 mps 696 mmHg 73%
    20:00 +6°C° 0 mm 1 mps 697 mmHg 74%
    21:00 +6°C° 0 mm 1 mps 697 mmHg 74%
    22:00 +5°C° 0 mm 1 mps 697 mmHg 74%
    23:00 +5°C° 0 mm 1 mps 697 mmHg 75%
    Show more